Clinton, IA

6:54 AM CDT on April 24, 2018 (GMT -0500)
Clinton Municipal

Weather History for KCWI - May, 2013

Change the Weather History Date:

Sunday, May 12, 2013

  Actual Average Record
Temperature  
Mean Temperature 45 °F -  
Max Temperature 57 °F 71 °F 90 °F (1956)
Min Temperature 33 °F 49 °F 33 °F (1960)
Degree Days  
Heating Degree Days 20    
Moisture  
Dew Point 26 °F    
Average Humidity 49    
Maximum Humidity 75    
Minimum Humidity 29    
Precipitation  
Precipitation 0.00 in - - ()
Sea Level Pressure  
Sea Level Pressure 30.16 in    
Wind  
Wind Speed 11 mph (NW)    
Max Wind Speed 23 mph    
Max Gust Speed 28 mph    
Visibility 10 miles    
Events      
Averages and records for this station are not official NWS values.
T = Trace of Precipitation, MM = Missing Value Source: NWS Daily Summary

Daily Weather History Graph

Daily Weather History Graph

Search for Another Location

Airport or City:

Astronomy

May. 12, 2013 Rise Set
Actual Time 5:44 AM CDT 8:11 PM CDT
Civil Twilight 5:12 AM CDT 8:43 PM CDT
Nautical Twilight 4:33 AM CDT 9:22 PM CDT
Astronomical Twilight 3:49 AM CDT 10:06 PM CDT
Moon 7:38 AM CDT (5/12) 10:39 PM CDT (5/12)
Length of Visible Light 15h 30m
Length of Day
14h 27m
Waxing Crescent, 7% of the Moon is Illuminated
May 12
Waxing Crescent
May 17
First Quarter
May 24
Full
May 31
Last Quarter
Jun 8
New

Hourly Weather History & Observations

Time (CDT) Temp. Windchill Dew Point Humidity Pressure Visibility Wind Dir Wind Speed Gust Speed Precip Events Conditions
12:15 AM 37.4 °F 32.1 °F 26.6 °F 65% 30.14 in 10.0 mi NW 6.9 mph - N/A   Clear
12:35 AM 37.4 °F 32.1 °F 26.6 °F 65% 30.14 in 10.0 mi NW 6.9 mph - N/A   Clear
12:55 AM 35.6 °F 29.9 °F 26.6 °F 70% 30.15 in 10.0 mi NW 6.9 mph - N/A   Clear
1:15 AM 35.6 °F 29.9 °F 26.6 °F 70% 30.15 in 10.0 mi WNW 6.9 mph - N/A   Clear
1:35 AM 35.6 °F 29.9 °F 26.6 °F 70% 30.15 in 10.0 mi WNW 6.9 mph - N/A   Clear
1:55 AM 33.8 °F 26.4 °F 26.6 °F 75% 30.15 in 10.0 mi WNW 9.2 mph - N/A   Clear
2:15 AM 33.8 °F 27.0 °F 26.6 °F 75% 30.15 in 10.0 mi WNW 8.1 mph - N/A   Clear
2:35 AM 33.8 °F 27.0 °F 26.6 °F 75% 30.15 in 10.0 mi WNW 8.1 mph - N/A   Clear
2:55 AM 33.8 °F 27.0 °F 26.6 °F 75% 30.15 in 10.0 mi WNW 8.1 mph - N/A   Clear
3:15 AM 33.8 °F 26.4 °F 26.6 °F 75% 30.15 in 10.0 mi WNW 9.2 mph - N/A   Clear
3:35 AM 33.8 °F 27.0 °F 26.6 °F 75% 30.15 in 10.0 mi WNW 8.1 mph - N/A   Clear
3:55 AM 33.8 °F 26.4 °F 26.6 °F 75% 30.16 in 10.0 mi WNW 9.2 mph - N/A   Clear
4:35 AM 33.8 °F 25.3 °F 26.6 °F 75% 30.15 in 10.0 mi NW 11.5 mph - N/A   Clear
4:55 AM 33.8 °F 25.8 °F 26.6 °F 75% 30.15 in 10.0 mi NW 10.4 mph - N/A   Clear
5:15 AM 33.8 °F 26.4 °F 24.8 °F 70% 30.16 in 10.0 mi NW 9.2 mph - N/A   Clear
5:35 AM 35.6 °F 28.0 °F 24.8 °F 65% 30.16 in 10.0 mi NW 10.4 mph - N/A   Clear
5:55 AM 33.8 °F 25.8 °F 26.6 °F 75% 30.16 in 10.0 mi NW 10.4 mph - N/A   Clear
6:15 AM 33.8 °F 28.6 °F 26.6 °F 75% 30.17 in 10.0 mi NW 5.8 mph - N/A   Clear
6:35 AM 35.6 °F 29.9 °F 26.6 °F 70% 30.17 in 10.0 mi NW 6.9 mph - N/A   Clear
6:55 AM 37.4 °F 31.4 °F 26.6 °F 65% 30.18 in 10.0 mi NNW 8.1 mph - N/A   Clear
7:15 AM 39.2 °F 33.0 °F 26.6 °F 61% 30.18 in 10.0 mi NW 9.2 mph - N/A   Partly Cloudy
7:35 AM 39.2 °F 31.6 °F 26.6 °F 61% 30.19 in 10.0 mi NW 12.7 mph - N/A   Partly Cloudy
7:55 AM 41.0 °F 33.5 °F 26.6 °F 57% 30.19 in 10.0 mi NNW 13.8 mph - N/A   Clear
8:15 AM 42.8 °F 35.8 °F 26.6 °F 53% 30.19 in 10.0 mi NNW 13.8 mph - N/A   Clear
8:35 AM 44.6 °F 38.1 °F 26.6 °F 49% 30.20 in 10.0 mi NW 13.8 mph - N/A   Clear
8:55 AM 44.6 °F 39.2 °F 26.6 °F 49% 30.20 in 10.0 mi NW 10.4 mph - N/A   Clear
9:15 AM 44.6 °F 38.1 °F 26.6 °F 49% 30.20 in 10.0 mi NNW 13.8 mph 19.6 mph N/A   Clear
9:35 AM 46.4 °F 41.1 °F 24.8 °F 43% 30.20 in 10.0 mi NNW 11.5 mph - N/A   Clear
9:55 AM 46.4 °F 40.4 °F 24.8 °F 43% 30.20 in 10.0 mi NW 13.8 mph 19.6 mph N/A   Clear
10:15 AM 48.2 °F - 26.6 °F 43% 30.20 in 10.0 mi NW 11.5 mph 19.6 mph N/A   Clear
10:35 AM 48.2 °F - 26.6 °F 43% 30.20 in 10.0 mi NW 17.3 mph 20.7 mph N/A   Clear
10:55 AM 48.2 °F - 24.8 °F 40% 30.21 in 10.0 mi NW 16.1 mph 21.9 mph N/A   Clear
11:15 AM 48.2 °F - 24.8 °F 40% 30.21 in 10.0 mi NNW 18.4 mph - N/A   Clear
11:35 AM 50.0 °F - 24.8 °F 37% 30.20 in 10.0 mi NW 19.6 mph 25.3 mph N/A   Clear
11:55 AM 51.8 °F - 26.6 °F 38% 30.20 in 10.0 mi WNW 16.1 mph 24.2 mph N/A   Clear
12:15 PM 51.8 °F - 24.8 °F 35% 30.20 in 10.0 mi NNW 20.7 mph 27.6 mph N/A   Clear
12:35 PM 51.8 °F - 24.8 °F 35% 30.19 in 10.0 mi NW 9.2 mph 25.3 mph N/A   Clear
12:55 PM 53.6 °F - 24.8 °F 33% 30.19 in 10.0 mi NW 15.0 mph 24.2 mph N/A   Clear
1:15 PM 53.6 °F - 24.8 °F 33% 30.19 in 10.0 mi NW 13.8 mph 26.5 mph N/A   Clear
1:35 PM 53.6 °F - 24.8 °F 33% 30.18 in 10.0 mi WNW 20.7 mph - N/A   Clear
1:55 PM 55.4 °F - 24.8 °F 31% 30.18 in 10.0 mi NW 18.4 mph 23.0 mph N/A   Clear
2:15 PM 55.4 °F - 26.6 °F 33% 30.17 in 10.0 mi NW 15.0 mph 24.2 mph N/A   Clear
2:35 PM 55.4 °F - 26.6 °F 33% 30.17 in 10.0 mi NW 20.7 mph 27.6 mph N/A   Clear
2:55 PM 55.4 °F - 26.6 °F 33% 30.16 in 10.0 mi NW 20.7 mph 24.2 mph N/A   Clear
3:15 PM 55.4 °F - 26.6 °F 33% 30.15 in 10.0 mi NW 17.3 mph 26.5 mph N/A   Clear
3:35 PM 55.4 °F - 24.8 °F 31% 30.15 in 10.0 mi NW 16.1 mph 27.6 mph N/A   Clear
3:55 PM 57.2 °F - 24.8 °F 29% 30.14 in 10.0 mi NW 19.6 mph 25.3 mph N/A   Clear
4:15 PM 57.2 °F - 24.8 °F 29% 30.14 in 10.0 mi WNW 12.7 mph 24.2 mph N/A   Clear
4:35 PM 57.2 °F - 24.8 °F 29% 30.14 in 10.0 mi NW 23.0 mph - N/A   Clear
4:55 PM 57.2 °F - 24.8 °F 29% 30.13 in 10.0 mi NW 21.9 mph 25.3 mph N/A   Clear
5:15 PM 57.2 °F - 24.8 °F 29% 30.13 in 10.0 mi NW 13.8 mph 25.3 mph N/A   Clear
5:35 PM 57.2 °F - 24.8 °F 29% 30.13 in 10.0 mi NW 17.3 mph 25.3 mph N/A   Clear
5:55 PM 57.2 °F - 24.8 °F 29% 30.13 in 10.0 mi WNW 18.4 mph 24.2 mph N/A   Clear
6:15 PM 55.4 °F - 24.8 °F 31% 30.12 in 10.0 mi NW 16.1 mph 25.3 mph N/A   Clear
6:35 PM 55.4 °F - 24.8 °F 31% 30.12 in 10.0 mi NW 18.4 mph 23.0 mph N/A   Clear
6:55 PM 55.4 °F - 24.8 °F 31% 30.12 in 10.0 mi NW 16.1 mph 23.0 mph N/A   Clear
7:15 PM 53.6 °F - 24.8 °F 33% 30.12 in 10.0 mi NW 12.7 mph - N/A   Clear
7:35 PM 53.6 °F - 24.8 °F 33% 30.12 in 10.0 mi NW 11.5 mph - N/A   Clear
7:55 PM 51.8 °F - 26.6 °F 38% 30.13 in 10.0 mi NW 9.2 mph - N/A   Clear
8:15 PM 50.0 °F - 24.8 °F 37% 30.13 in 10.0 mi NW 9.2 mph - N/A   Clear
8:35 PM 48.2 °F - 24.8 °F 40% 30.13 in 10.0 mi NNW 8.1 mph - N/A   Clear
8:55 PM 46.4 °F 42.4 °F 24.8 °F 43% 30.14 in 10.0 mi NW 8.1 mph - N/A   Clear
9:15 PM 46.4 °F 42.4 °F 26.6 °F 46% 30.14 in 10.0 mi NW 8.1 mph - N/A   Clear
9:35 PM 42.8 °F 38.6 °F 26.6 °F 53% 30.14 in 10.0 mi NW 6.9 mph - N/A   Clear
9:55 PM 42.8 °F 39.3 °F 26.6 °F 53% 30.15 in 10.0 mi NW 5.8 mph - N/A   Clear
10:15 PM 42.8 °F 40.1 °F 26.6 °F 53% 30.15 in 10.0 mi West 4.6 mph - N/A   Clear
10:35 PM 44.6 °F 43.1 °F 26.6 °F 49% 30.15 in 10.0 mi WNW 3.5 mph - N/A   Clear
10:55 PM 42.8 °F 41.1 °F 26.6 °F 53% 30.15 in 10.0 mi West 3.5 mph - N/A   Clear
11:15 PM 41.0 °F 39.0 °F 26.6 °F 57% 30.15 in 10.0 mi West 3.5 mph - N/A   Clear
11:35 PM 42.8 °F 41.1 °F 26.6 °F 53% 30.15 in 10.0 mi WNW 3.5 mph - N/A   Clear
11:55 PM 41.0 °F 38.0 °F 26.6 °F 57% 30.15 in 10.0 mi West 4.6 mph - N/A   Clear